Lawrence, KS

4:18 AM CDT on April 27, 2018 (GMT -0500)
Lawrence Municipal

Weather History for KLWC - April, 2013

Change the Weather History Date:

Tuesday, April 9, 2013

  Actual Average Record
Temperature  
Mean Temperature 59 °F 53 °F  
Max Temperature 76 °F 65 °F 88 °F (2011)
Min Temperature 41 °F 41 °F 21 °F (2003)
Degree Days  
Heating Degree Days 6 13  
Month to date heating degree days 128 125  
Since 1 July heating degree days 4775 4781  
Cooling Degree Days 0 1  
Month to date cooling degree days 0 2  
Year to date cooling degree days 0 5  
Growing Degree Days 12 (Base 50)    
Moisture  
Dew Point 57 °F    
Average Humidity 77    
Maximum Humidity 89    
Minimum Humidity 64    
Precipitation  
Precipitation 0.05 in 0.11 in 0.58 in (2009)
Month to date precipitation 0.64 0.81  
Year to date precipitation 5.04 5.74  
Sea Level Pressure  
Sea Level Pressure 29.70 in    
Wind  
Wind Speed 13 mph (SE)    
Max Wind Speed 36 mph    
Max Gust Speed 44 mph    
Visibility 7 miles    
Events Rain , Thunderstorm    
T = Trace of Precipitation, MM = Missing Value Source: NWS Daily Summary

Daily Weather History Graph

Daily Weather History Graph

Search for Another Location

Airport or City:

Astronomy

Apr. 09, 2013 Rise Set
Actual Time 6:52 AM CDT 7:52 PM CDT
Civil Twilight 6:25 AM CDT 8:19 PM CDT
Nautical Twilight 5:53 AM CDT 8:52 PM CDT
Astronomical Twilight 5:19 AM CDT 9:26 PM CDT
Moon 6:15 AM CDT (4/9) 7:29 PM CDT (4/9)
Length of Visible Light 13h 54m
Length of Day
12h 59m
Waning Crescent, 1% of the Moon is Illuminated
Apr 9
Waning Crescent
Apr 10
New
Apr 18
First Quarter
Apr 25
Full
May 2
Last Quarter

Hourly Weather History & Observations

Time (CDT) Temp. Dew Point Humidity Pressure Visibility Wind Dir Wind Speed Gust Speed Precip Events Conditions
12:52 AM 64.0 °F 57.9 °F 80% 29.67 in 8.0 mi SE 12.7 mph - N/A   Overcast
1:52 AM 64.0 °F 57.9 °F 80% 29.65 in 8.0 mi SE 11.5 mph - N/A   Overcast
2:52 AM 64.0 °F 57.9 °F 80% 29.62 in 8.0 mi SE 11.5 mph - N/A   Overcast
3:52 AM 64.9 °F 57.9 °F 78% 29.61 in 8.0 mi SE 12.7 mph - N/A   Overcast
4:52 AM 66.0 °F 57.9 °F 75% 29.61 in 8.0 mi SE 11.5 mph - N/A   Overcast
5:52 AM 64.9 °F 57.9 °F 78% 29.63 in 8.0 mi ESE 9.2 mph - N/A   Overcast
6:52 AM 64.9 °F 57.9 °F 78% 29.65 in 8.0 mi ESE 9.2 mph - N/A   Overcast
7:52 AM 66.0 °F 57.9 °F 75% 29.67 in 7.0 mi SE 10.4 mph - N/A   Overcast
8:52 AM 66.0 °F 57.9 °F 75% 29.68 in 6.0 mi SE 9.2 mph - N/A   Haze
9:52 AM 66.9 °F 59.0 °F 76% 29.72 in 5.0 mi SSE 11.5 mph - 0.00 in Rain Light Rain
10:52 AM 66.0 °F 60.1 °F 81% 29.75 in 5.0 mi East 4.6 mph - 0.00 in   Haze
11:52 AM 68.0 °F 60.1 °F 76% 29.74 in 6.0 mi SE 9.2 mph - N/A   Haze
12:52 PM 70.0 °F 61.0 °F 73% 29.73 in 6.0 mi SSE 12.7 mph - N/A   Haze
1:52 PM 72.0 °F 61.0 °F 68% 29.72 in 6.0 mi SE 13.8 mph - N/A   Haze
2:52 PM 75.9 °F 62.1 °F 62% 29.69 in 5.0 mi SE 18.4 mph - N/A   Haze
3:52 PM 73.9 °F 62.1 °F 66% 29.68 in 5.0 mi SE 17.3 mph 24.2 mph N/A   Haze
4:02 PM 75.2 °F 62.6 °F 65% 29.69 in 5.0 mi SE 17.3 mph - N/A   Haze
4:52 PM 72.0 °F 62.1 °F 71% 29.68 in 5.0 mi SSE 13.8 mph - N/A   Haze
5:52 PM 69.1 °F 61.0 °F 75% 29.70 in 5.0 mi SE 9.2 mph - N/A   Haze
6:52 PM 70.0 °F 62.1 °F 76% 29.69 in 5.0 mi SE 11.5 mph - N/A   Haze
7:52 PM 68.0 °F 62.1 °F 81% 29.69 in 5.0 mi SE 10.4 mph - N/A   Haze
8:52 PM 69.1 °F 62.1 °F 78% 29.68 in 5.0 mi SE 10.4 mph - N/A   Haze
9:50 PM 59.0 °F 53.6 °F 82% 29.74 in 9.0 mi NNW 12.7 mph 23.0 mph N/A   Overcast
9:52 PM 59.0 °F 53.1 °F 81% 29.74 in 9.0 mi NNW 11.5 mph 23.0 mph N/A   Overcast
10:09 PM 55.4 °F 51.8 °F 88% 29.74 in 9.0 mi NW 17.3 mph - 0.00 in Rain Light Rain
10:35 PM 53.6 °F 48.2 °F 82% 29.76 in 8.0 mi NW 19.6 mph 25.3 mph 0.01 in Rain , Thunderstorm Light Rain
10:52 PM 52.0 °F 48.0 °F 86% 29.75 in 9.0 mi NNW 18.4 mph 26.5 mph 0.01 in   Overcast
11:04 PM 50.0 °F 46.4 °F 87% 29.75 in 9.0 mi NNW 18.4 mph 26.5 mph N/A   Overcast
11:52 PM 48.9 °F 45.0 °F 86% 29.79 in 8.0 mi NNW 24.2 mph 34.5 mph 0.00 in Rain Light Rain